Weather History for Poplar Bluff, MO

Change the Weather History Date:

Wednesday, March 5, 2014

  Actual Average Record
Temperature  
Mean Temperature 22 °F -  
Max Temperature 32 °F 55 °F 82 °F (1918)
Min Temperature 12 °F 33 °F 5 °F (1960)
Degree Days  
Heating Degree Days 43    
Moisture  
Dew Point 22 °F    
Average Humidity 81    
Maximum Humidity 85    
Minimum Humidity 75    
Precipitation  
Precipitation 0.00 in - - ()
Sea Level Pressure  
Sea Level Pressure 30.22 in    
Wind  
Wind Speed 4 mph (NE)    
Max Wind Speed 10 mph    
Max Gust Speed -    
Visibility 4 miles    
Events Fog    
Averages and records for this station are not official NWS values.
T = Trace of Precipitation, MM = Missing Value Source: NWS Daily Summary

Daily Weather History Graph

Daily Weather History Graph

Search for Another Location

Airport:

Trip Planner

Search our weather history database for the weather conditions in past years. The results will help you decide how hot, cold, wet, or windy it might be!

Date:

Astronomy

Mar. 05, 2014 Rise Set
Actual Time 6:26 AM CST 5:59 PM CST
Civil Twilight 6:00 AM CST 6:25 PM CST
Nautical Twilight 5:30 AM CST 6:55 PM CST
Astronomical Twilight 5:00 AM CST 7:25 PM CST
Moon 8:59 AM CST (3/5) 10:59 PM CST (3/5)
Length of Visible Light 12h 24m
Length of Day
11h 33m
Waxing Crescent, 23% of the Moon is Illuminated
Mar 5
Waxing Crescent
Mar 8
First Quarter
Mar 16
Full
Mar 23
Last Quarter
Mar 30
New

Hourly Weather History & Observations

Time (CST) Temp. Windchill Dew Point Humidity Pressure Visibility Wind Dir Wind Speed Gust Speed Precip Events Conditions
12:46 AM 12.9 °F - 8.1 °F 81% 30.16 in 7.0 mi Calm Calm - N/A   Scattered Clouds
12:53 AM 14.0 °F 8.2 °F 9.0 °F 80% 30.19 in 6.0 mi SE 3.5 mph - N/A   Haze
1:16 AM 19.0 °F 12.3 °F 14.0 °F 81% 30.17 in 4.0 mi SE 4.6 mph - N/A   Haze
1:21 AM 19.0 °F 12.3 °F 15.1 °F 85% 30.17 in 1.8 mi SE 4.6 mph - N/A   Overcast
1:29 AM 19.9 °F 14.9 °F 16.0 °F 85% 30.17 in 0.2 mi SSE 3.5 mph - N/A Fog Light Freezing Fog
1:53 AM 21.0 °F - 17.1 °F 85% 30.19 in 0.2 mi Calm Calm - N/A Fog Light Freezing Fog
2:53 AM 21.9 °F - 18.0 °F 85% 30.19 in 0.2 mi Calm Calm - N/A Fog Light Freezing Fog
3:53 AM 24.1 °F 19.7 °F 19.0 °F 81% 30.20 in 0.2 mi NW 3.5 mph - N/A   Haze
4:53 AM 25.0 °F 20.7 °F 19.9 °F 81% 30.22 in 0.2 mi North 3.5 mph - N/A   Haze
5:53 AM 25.0 °F 20.7 °F 19.9 °F 81% 30.22 in 0.2 mi North 3.5 mph - N/A   Haze
6:07 AM 25.0 °F 20.7 °F 19.9 °F 81% 30.19 in 0.5 mi NE 3.5 mph - N/A   Haze
6:27 AM 25.0 °F 18.1 °F 19.9 °F 81% 30.19 in 0.2 mi NE 5.8 mph - N/A   Haze
6:53 AM 26.1 °F 19.4 °F 21.0 °F 81% 30.23 in 0.2 mi NE 5.8 mph - N/A   Haze
7:53 AM 28.0 °F 22.8 °F 21.9 °F 78% 30.24 in 0.2 mi NNE 4.6 mph - N/A   Haze
8:05 AM 28.0 °F 22.8 °F 23.0 °F 81% 30.22 in 0.5 mi NNE 4.6 mph - N/A   Haze
8:53 AM 28.9 °F 23.9 °F 24.1 °F 82% 30.26 in 0.8 mi NNE 4.6 mph - N/A   Haze
9:12 AM 28.9 °F 23.9 °F 24.1 °F 82% 30.24 in 1.0 mi NE 4.6 mph - N/A   Haze
9:48 AM 30.2 °F 24.3 °F 24.8 °F 80% 30.24 in 3.0 mi ENE 5.8 mph - N/A   Haze
9:49 AM 30.0 °F 25.2 °F 24.1 °F 79% 30.27 in 3.0 mi ENE 4.6 mph - N/A   Haze
10:15 AM 30.0 °F 23.2 °F 24.1 °F 79% 30.23 in 2.0 mi NE 6.9 mph - N/A   Haze
10:53 AM 30.0 °F 23.2 °F 25.0 °F 82% 30.26 in 3.0 mi NE 6.9 mph - N/A   Haze
11:17 AM 30.0 °F 24.1 °F 24.1 °F 79% 30.24 in 5.0 mi NE 5.8 mph - N/A   Haze
11:53 AM 30.0 °F 24.1 °F 24.1 °F 79% 30.27 in 5.0 mi NE 5.8 mph - N/A   Haze
12:53 PM 28.9 °F 23.9 °F 24.1 °F 82% 30.24 in 6.0 mi Variable 4.6 mph - N/A   Haze
1:53 PM 30.0 °F 23.2 °F 25.0 °F 82% 30.21 in 5.0 mi East 6.9 mph - N/A   Haze
2:53 PM 32.0 °F 24.8 °F 25.0 °F 75% 30.19 in 6.0 mi ENE 8.1 mph - N/A   Haze
3:53 PM 32.0 °F 25.6 °F 26.1 °F 79% 30.20 in 7.0 mi ENE 6.9 mph - N/A   Overcast
4:53 PM 32.0 °F 23.6 °F 26.1 °F 79% 30.21 in 7.0 mi NE 10.4 mph - N/A   Overcast
5:53 PM 32.0 °F 27.5 °F 26.1 °F 79% 30.23 in 7.0 mi NNE 4.6 mph - N/A   Overcast
6:53 PM 32.0 °F 28.7 °F 26.1 °F 79% 30.24 in 10.0 mi NNE 3.5 mph - N/A   Overcast
7:11 PM 32.0 °F - 26.1 °F 79% 30.21 in 10.0 mi North - - N/A   Overcast
7:53 PM 30.9 °F - 25.0 °F 79% 30.25 in 9.0 mi Calm Calm - N/A   Overcast
8:53 PM 30.9 °F 27.5 °F 25.0 °F 79% 30.27 in 7.0 mi ENE 3.5 mph - N/A   Overcast
9:53 PM 28.0 °F 21.7 °F 23.0 °F 81% 30.27 in 4.0 mi North 5.8 mph - N/A   Haze
10:53 PM 32.0 °F 24.2 °F 26.1 °F 79% 30.23 in 8.0 mi NE 9.2 mph - N/A   Overcast
11:25 PM 30.9 °F 25.2 °F 25.0 °F 79% 30.21 in 8.0 mi NE 5.8 mph - N/A   Scattered Clouds
11:53 PM 28.0 °F 20.8 °F 23.0 °F 81% 30.23 in 6.0 mi NNE 6.9 mph - N/A   Haze